Погода в Сеферихисаре

Турция     38°11′46″N   26°50′07″E
темп.,
°C
ветер,
м/с
пор.,
м/с
влажн.,
%
обл.,
%
осадки,
мм/ч
давл.,
гПа
погр.,
м
15 мая, сб
сб1500:00+15ю11840 0.0 101513
03:00+14ююв228586 0.0 101420
06:00+14ююв11860 0.0 101317
09:00+20ю23535 0.0 1013409
12:00+23ю443955 0.0 1012711
15:00+23ююз3441100 0.0 1011541
18:00+21ююз3452100 0.0 1010349
21:00+17ю2273100 0.0 101025
16 мая, вс
вс1600:00+16юв228367 0.1 100944
03:00+15юв118033 0.2 100817
06:00+14ю11846 0.0 100717
09:00+20ююз11630 0.0 1008641
12:00+22зюз325418 0.4 10081213
15:00+23сз54450 0.9 10081310
18:00+21зсз67460 0.0 1008702
21:00+16сз11650 0.0 100918
17 мая, пн
пн1700:00+14сз11709 0.0 101017
03:00+14с11715 0.0 101119
06:00+13ссв117182 0.0 101120
09:00+20ссв11481 0.0 1012457
12:00+25ююз11352 0.0 10121157
15:00+26зюз33335 0.0 10111423
18:00+25зюз33395 0.0 1011665
21:00+18юв11650 0.0 101215
18 мая, вт
вт1800:00+17ююв22710 0.0 101216
03:00+16ююв22760 0.0 101224
06:00+16ююв22760 0.0 101219
09:00+22ю23500 0.0 1013358
12:00+25ю33380 0.0 1013664
15:00+27ююз43350 0.0 1013846
18:00+25ююз33400 0.0 1013491
21:00+19ю22745 0.0 101315
19 мая, ср
ср1900:00+18ю22705 0.0 101318
03:00+17ю22780 0.0 101221
06:00+17ююв22810 0.0 101131
09:00+23ю355494 0.0 1011348
12:00+26ю45414 0.0 1011584
15:00+28ю57350 0.0 1010794
18:00+25ююз46485 0.0 1010435
21:00+19ююв377329 0.0 1010173